Hourly Data Report for August 15, 2020

SVARTEVAEG
NUNAVUT
Current Station Operator: ECCC - MSC

81°09'39.000" N
91°48'59.060" W
72.00 m
2403833
71872
NSG

Download Data

Hourly Data (August 2020)
Hourly Data Report for August 15, 2020
TIME Temp Definition
°C
Dew Point Definition
°C
Rel Hum Definition
%
Wind Dir Definition
10's deg

Wind Spd Definition
km/h
Visibility Definition
km
Stn Press Definition
kPa
Hmdx Definition


Wind Chill Definition


Weather Definition


00:00 0.1 0.0 99 35 11   100.69     LegendNANA
01:00 0.1 0.1 100 35 10   100.68     LegendNANA
02:00 0.2 0.2 100 35 7   100.68     LegendNANA
03:00 0.5 0.4 100 32 4   100.69     LegendNANA
04:00 0.3 0.2 100 35 10   100.74     LegendNANA
05:00 0.6 0.6 100 36 8   100.73     LegendNANA
06:00 0.8 0.8 100 36 7   100.73     LegendNANA
07:00 0.8 0.8 100 36 9   100.72     LegendNANA
08:00 1.0 0.9 100 36 8   100.71     LegendNANA
09:00 1.3 1.2 100 1 5   100.69     LegendNANA
10:00 1.3 1.2 100 1 8   100.69     LegendNANA
11:00 2.1 1.8 98 36 10   100.67     LegendNANA
12:00 2.6 0.9 88 35 12   100.66     LegendNANA
13:00 2.5 -0.2 83 36 9   100.64     LegendNANA
14:00 0.5 -0.1 95 35 17   100.62     LegendNANA
15:00 0.6 0.0 96 34 15   100.63     LegendNANA
16:00 0.5 0.1 97 35 16   100.61     LegendNANA
17:00 0.5 0.1 97 35 16   100.59     LegendNANA
18:00 0.1 -0.4 96 35 18   100.56     LegendNANA
19:00 0.0 -0.4 97 34 18   100.54   -5 LegendNANA
20:00 -0.5 -0.8 98 35 18   100.52   -6 LegendNANA
21:00 -0.7 -0.8 99 34 20   100.49   -6 LegendNANA
22:00 -0.6 -0.9 98 35 19   100.48   -6 LegendNANA
23:00 -0.8 -1.0 99 35 23   100.45   -7 LegendNANA

Notes on Data Quality.

Legend

  • E = Estimated
  • M = Missing
  • NA = Not Available*
  • [empty] = Indicates an unobserved value
Date modified: